Weather in Rogovo

Russia / Moscow Oblast     55°12′56″N   37°04′34″E
temp.,
°C
wind,
m/s
gust,
m/s
humid.,
%
clouds,
%
prec.,
mm/h
press.,
hPa
HPBL,
m
8 march, mon
mon800:00−9w4119135 0.1 997382
03:00−8wsw4119359 0.5 997433
06:00−6w51193100 0.7 9971116
09:00−8wnw5108399 1.0 998957
12:00−6wnw5781100 0.1 1002987
15:00−5wnw4678100 0.3 1004983
18:00−8wnw368894 0.1 1006185
21:00−11nw229448 0.1 100925
9 march, tue
tue900:00−13nnw239742 0.1 101172
03:00−15nnw279735 0.1 1013144
06:00−16nnw279761 0.0 1014171
09:00−15nnw379044 0.0 1016349
12:00−11nnw358186 0.0 1017716
15:00−10nnw457793 0.1 1018977
18:00−13nnw3786100 0.1 1019526
21:00−17nnw279491 0.1 1022185
10 march, wed
wed1000:00−20n25988 0.0 1024102
03:00−22nnw24974 0.0 102686
06:00−23nnw25970 0.0 1027113
09:00−21n25911 0.0 1029286
12:00−16nne25741 0.0 1030537
15:00−13n24680 0.0 1030765
18:00−16nnw12840 0.0 103020
21:00−18nw23900 0.0 103125
11 march, thu
thu1100:00−19wnw23900 0.0 103238
03:00−20wnw23910 0.0 103360
06:00−20wnw239310 0.0 103338
09:00−17wnw248710 0.0 1034183
12:00−10wnw23750 0.0 1033489
15:00−8w237428 0.0 1032724
18:00−11sw228755 0.0 103121
21:00−15ssw239128 0.0 103140
12 march, fri
fri1200:00−17s23890 0.0 103171
03:00−19s38850 0.0 1030173
06:00−19s410800 0.0 1028258
09:00−15s5127823 0.0 1025362
12:00−9s61378100 0.0 1023605
15:00−7s71480100 0.0 1019846
18:00−7s71592100 1.1 10161157
21:00−6s71692100 2.1 10151129